Theta_e
315 313 318 324 319 314 317 319 320 322 322 324 326 335 335 339 340 341 338 329 326 325 325 324 323 325 325 325 324 323 323 322 322 322 321 321 320 320 319 319 318 318 318 318 318 318 319 319 319
313 314 322 323 317 318 318 319 321 322 323 326 326 338 338 340 340 338 336 336 327 327 325 324 323 325 326 325 325 324 323 323 322 322 322 322 321 321 320 320 320 319 319 319 319 319 319 319 319
314 320 323 319 316 318 319 321 323 323 325 325 332 335 340 340 338 336 335 335 327 327 326 324 324 325 326 326 325 324 323 323 322 322 322 322 321 321 321 320 320 320 320 320 320 319 319 319 319
325 328 329 317 318 319 321 321 322 323 323 324 328 335 339 338 339 335 337 333 328 328 326 324 324 325 325 326 325 324 323 323 322 321 321 321 321 321 321 321 321 321 321 320 320 320 320 320 320
323 322 317 316 317 318 320 321 321 320 321 323 324 330 337 338 338 336 334 332 328 329 327 325 324 325 324 325 325 323 323 322 321 320 320 320 319 319 320 320 321 321 321 321 321 321 320 320 320
326 319 316 318 319 320 319 321 321 320 322 324 323 325 335 337 337 335 333 329 327 329 327 326 325 325 325 324 325 325 323 322 321 320 320 319 319 319 319 319 320 321 321 321 321 321 321 321 321
327 321 317 318 319 322 321 323 321 320 321 322 324 325 336 336 335 335 334 330 327 328 327 326 325 325 325 324 325 326 325 323 322 321 320 320 319 319 319 319 319 320 320 321 321 321 321 321 321
326 322 326 325 325 325 325 324 326 324 324 324 324 323 338 336 336 335 335 329 327 327 327 326 326 325 325 324 324 325 326 325 323 321 321 320 319 318 318 318 318 319 319 320 320 321 321 321 321
321 321 325 327 326 325 326 325 326 327 326 326 325 331 336 337 339 338 334 328 326 326 327 326 326 326 325 325 324 325 326 325 324 322 322 320 319 318 317 317 317 317 318 319 320 320 321 321 321
319 318 323 325 325 325 326 326 327 326 326 326 325 325 329 333 337 338 334 329 327 327 327 327 327 327 326 325 325 325 326 327 327 325 324 323 321 319 318 316 316 316 316 318 319 319 320 320 320
320 321 322 323 325 326 326 326 326 326 326 327 325 326 326 325 326 335 337 335 334 331 328 328 328 328 327 327 326 326 326 328 328 327 325 324 322 321 319 318 317 316 316 316 317 318 319 319 320
314 317 321 322 323 324 325 325 326 326 326 327 327 327 328 326 327 328 335 336 337 336 335 331 330 330 330 330 329 328 328 328 330 331 329 328 328 328 328 328 322 319 317 315 315 316 317 319 319
313 314 316 317 318 322 325 325 325 326 326 327 327 327 328 329 327 328 334 337 337 337 337 336 333 331 331 330 330 329 329 329 331 330 328 328 330 332 336 336 336 334 328 322 318 322 327 334 332
311 312 312 313 314 316 316 317 322 325 326 326 326 326 327 328 328 328 328 333 335 336 338 337 336 335 332 331 331 330 330 330 331 329 328 328 327 330 335 338 339 339 338 333 326 329 334 335 335
312 310 310 312 314 315 317 317 317 319 320 322 325 326 326 327 328 328 328 328 329 335 335 339 338 338 336 336 335 335 336 334 330 328 328 327 327 327 333 336 341 341 341 337 332 333 337 337 335
310 309 309 312 311 314 316 316 317 318 318 319 320 324 326 325 326 326 327 328 328 329 336 334 338 338 338 338 337 339 339 334 330 327 327 327 325 327 332 335 341 343 342 340 335 335 337 338 337
308 308 309 310 311 311 312 311 313 315 316 317 318 320 322 326 326 326 326 326 327 328 332 335 335 338 339 339 339 341 340 337 331 328 326 326 326 329 335 336 341 344 343 342 337 337 337 337 337
309 309 310 311 312 312 311 311 312 313 314 314 315 315 316 323 324 326 326 327 326 327 329 333 334 334 336 339 341 341 340 338 335 330 327 329 328 332 337 338 340 344 343 342 339 338 338 338 336
311 311 311 312 312 312 311 311 312 312 313 312 313 313 314 315 315 322 326 326 325 325 327 331 334 334 337 338 337 341 340 336 332 329 330 333 331 333 335 339 342 344 344 343 342 341 340 338 336
311 311 310 311 312 312 310 311 312 311 311 312 313 313 314 314 316 316 318 325 323 325 326 328 336 334 335 336 335 335 333 335 334 332 328 330 331 332 337 341 343 344 345 344 343 342 340 339 337
311 311 312 313 313 311 311 311 311 312 312 312 312 313 313 313 314 315 317 320 324 325 325 327 329 336 334 333 333 334 335 335 333 331 327 326 329 337 341 342 343 344 345 344 343 342 341 339 337
313 314 313 313 313 311 310 311 310 310 310 310 311 311 311 311 313 313 315 317 322 326 324 328 328 333 334 332 333 332 331 331 329 327 327 325 337 341 343 343 344 345 345 345 342 342 342 340 338
313 313 312 312 312 310 310 308 310 309 310 310 310 311 313 313 313 313 314 315 318 324 326 326 329 330 334 332 333 332 331 330 329 327 325 324 332 343 344 345 345 345 344 342 342 343 342 340 338
312 312 311 310 308 309 309 308 310 308 309 309 311 314 315 316 316 315 315 316 317 320 324 325 333 331 334 333 332 332 330 329 328 326 325 324 327 344 345 345 346 345 343 341 342 343 339 338 337
309 310 311 311 310 311 310 310 310 310 311 315 316 315 315 315 315 317 317 316 316 316 322 326 327 332 333 332 331 330 329 327 326 327 324 323 335 346 346 346 345 342 342 343 344 340 340 339 337
309 309 311 315 315 313 311 311 310 314 315 315 314 314 313 313 314 316 318 318 317 317 318 325 325 328 331 331 330 329 327 326 325 327 326 326 338 347 347 346 341 340 344 343 340 340 339 338 337
309 309 309 312 310 310 309 310 310 314 315 314 314 313 312 312 313 316 321 320 322 322 322 323 326 329 330 330 329 327 327 326 326 326 327 329 341 346 347 345 342 341 342 342 339 339 339 337 334
310 309 309 308 313 315 312 312 311 316 315 314 313 312 312 313 315 320 319 322 324 323 323 323 325 327 329 328 328 327 326 326 327 330 329 329 343 346 347 343 342 341 342 341 339 337 335 333 331
310 310 311 310 310 311 315 312 314 315 314 313 313 314 314 314 315 319 319 317 329 327 325 325 326 328 328 327 326 325 325 326 331 333 331 333 348 347 344 342 343 342 342 340 336 335 333 330 330
311 311 312 308 310 312 313 312 312 313 312 313 313 313 312 314 316 319 319 316 323 334 334 332 331 332 330 327 328 328 327 331 336 333 328 337 348 346 343 343 343 343 340 336 335 335 331 330 329
Wind_Speed
5 3 4 1 3 4 4 9 6 13 9 9 29 6 12 15 11 5 21 37 35 35 35 34 33 30 27 25 22 21 20 19 18 17 15 14 12 11 10 8 7 6 5 5 4 4 5 4 4
2 6 4 2 4 1 6 5 12 10 19 30 39 12 3 3 16 19 40 37 35 35 37 36 34 30 27 25 22 21 20 18 17 15 14 13 11 10 8 7 6 5 4 3 2 1 2 3 3
3 7 3 4 3 6 5 4 3 13 32 27 9 5 11 12 16 36 40 36 38 36 36 37 34 30 27 24 22 20 19 17 16 15 13 12 10 9 8 7 6 5 3 2 2 1 1 1 1
3 4 2 3 11 7 6 9 14 14 22 22 20 1 8 20 28 34 37 39 38 36 37 36 35 30 28 24 21 20 18 17 15 14 13 12 11 11 10 9 8 7 5 5 4 3 4 3 2
3 2 2 3 10 6 7 10 14 10 11 23 28 7 13 26 23 30 36 39 39 38 37 36 34 30 27 24 20 18 17 16 15 15 14 13 13 12 11 10 10 9 9 8 7 7 7 5 4
2 2 2 6 11 8 7 13 19 6 16 23 25 15 4 21 28 37 38 39 41 39 37 35 33 30 27 25 21 18 17 16 15 15 15 14 14 14 14 13 13 12 12 11 11 10 9 8 7
4 3 4 4 7 9 7 16 13 7 9 8 22 6 2 29 32 38 38 39 41 39 38 36 32 30 27 25 22 19 16 15 15 16 15 16 17 17 17 16 16 15 15 15 14 12 12 11 10
5 3 3 5 7 8 5 8 20 13 20 14 13 4 1 22 34 40 38 38 42 40 38 35 33 32 29 26 23 19 16 16 16 17 17 18 19 20 20 19 19 17 17 18 18 16 15 14 13
4 2 5 7 7 5 23 4 21 25 20 23 16 11 9 18 36 40 36 36 39 36 35 34 32 31 29 26 24 22 19 17 17 19 19 21 22 22 23 23 22 21 20 22 21 20 19 17 17
7 6 8 5 5 8 20 19 18 21 27 16 10 12 14 9 30 34 36 38 38 37 37 34 32 31 29 28 27 24 21 18 17 19 20 22 21 22 24 24 24 24 22 24 25 23 22 21 20
5 6 6 11 16 20 22 27 23 15 12 25 11 15 19 15 13 11 29 37 37 38 38 36 34 32 30 29 28 26 24 20 18 19 21 22 22 23 24 25 27 26 24 26 28 27 26 24 22
6 11 14 18 24 22 16 28 22 19 21 34 33 23 21 19 18 23 25 36 39 39 37 37 36 34 31 28 29 28 26 21 19 17 19 20 20 20 20 21 24 26 25 26 28 29 27 24 24
6 9 17 23 26 24 28 26 26 34 30 34 39 32 22 23 24 19 16 24 40 43 39 37 36 34 31 30 30 29 26 23 18 18 18 19 19 18 15 15 17 20 21 22 24 24 19 16 17
7 8 12 10 16 15 10 16 23 35 32 31 33 40 30 24 26 28 19 8 18 21 39 38 37 34 33 32 29 27 26 23 21 20 19 20 20 20 18 16 16 18 18 18 19 19 16 12 10
12 6 7 5 3 4 14 14 19 23 23 24 29 36 36 27 27 29 30 25 20 17 11 45 40 40 34 33 30 26 25 23 23 22 20 20 22 22 21 20 19 18 17 18 17 17 18 19 15
6 4 4 4 8 5 3 22 17 22 27 30 30 28 41 37 35 38 37 34 30 21 30 20 27 46 40 35 28 24 22 22 22 22 21 21 23 24 24 22 23 19 19 19 20 19 19 17 18
3 4 4 6 7 6 4 16 7 16 17 19 24 30 33 41 39 38 38 35 36 31 28 36 32 29 42 37 27 24 22 23 23 23 24 23 23 26 26 25 25 22 22 20 20 20 22 22 18
5 5 2 2 5 2 9 15 8 14 18 14 21 23 26 30 40 42 40 37 33 38 30 37 38 35 30 33 29 26 26 26 25 27 26 24 26 28 26 26 25 25 24 20 20 22 24 23 21
6 5 4 3 6 4 10 15 14 10 14 15 22 27 32 36 35 40 40 36 38 36 41 28 38 37 38 37 33 33 33 30 29 29 27 26 27 28 27 27 24 25 25 21 21 21 23 22 20
6 6 6 6 6 6 7 21 18 7 7 17 22 27 30 34 37 39 38 47 40 39 42 36 40 39 39 39 37 36 34 34 31 28 27 28 28 26 25 24 23 24 24 22 24 22 22 22 23
5 5 7 9 11 7 5 18 16 16 13 15 21 25 31 33 36 41 40 41 50 42 40 40 32 44 44 42 39 37 35 34 32 31 30 29 29 26 23 22 21 22 24 22 24 25 22 23 22
3 6 8 10 8 4 5 16 12 10 12 12 20 27 30 39 37 41 41 42 44 48 41 36 33 44 49 43 42 39 38 37 34 30 31 30 26 26 23 21 21 20 22 21 19 20 21 22 22
5 6 4 8 10 3 5 4 10 8 17 17 17 23 29 30 35 38 40 41 39 42 48 40 36 40 52 47 43 36 34 32 27 29 30 23 28 28 24 22 20 20 20 20 21 20 19 20 21
1 3 5 4 2 4 4 6 18 5 12 6 9 23 22 32 33 35 39 44 40 39 43 45 29 40 49 46 41 35 34 32 28 30 27 25 24 29 25 21 19 18 19 19 19 18 14 16 19
6 4 4 5 3 5 5 8 13 9 9 3 6 18 30 34 41 39 38 39 41 43 40 41 39 33 43 40 39 37 35 30 30 28 24 24 23 30 26 22 17 17 22 19 19 17 17 16 16
4 5 4 4 3 7 12 7 6 2 6 10 12 16 26 36 42 42 36 39 41 44 40 44 42 43 41 44 46 41 36 31 29 28 24 24 25 28 24 20 16 17 20 19 19 16 15 15 15
3 4 6 4 6 7 5 7 7 3 6 6 14 18 22 34 40 42 37 34 40 37 38 44 40 42 44 46 44 41 36 34 32 31 26 24 26 26 24 18 17 22 20 18 19 16 16 15 15
2 3 3 3 3 5 4 6 8 6 9 12 17 20 28 35 41 34 35 34 30 34 38 44 47 41 46 44 41 37 38 36 34 32 28 25 27 28 21 19 21 23 20 18 16 14 15 14 14
4 1 3 2 4 4 4 5 4 6 4 10 14 21 28 31 40 29 36 40 25 21 30 36 32 31 30 30 32 36 34 33 29 31 28 28 25 27 20 22 25 23 20 18 16 14 12 13 13
6 6 4 3 4 4 4 10 5 4 6 8 15 18 30 34 35 22 31 50 28 21 16 21 23 23 23 28 28 28 29 26 29 29 28 29 27 26 22 24 24 24 19 16 15 14 13 13 9
Wind_Direction
293 206 186 222 63 66 249 256 296 293 339 286 310 185 180 162 156 207 161 159 161 157 164 167 163 159 156 156 157 159 160 158 156 154 154 152 150 148 145 144 137 132 127 119 114 117 111 105 107
273 164 170 106 104 149 268 250 270 278 272 286 295 137 127 150 171 146 155 164 161 161 168 170 166 165 161 162 165 169 171 171 169 168 169 168 166 163 161 161 154 147 137 124 109 101 113 110 92
173 169 150 130 180 192 234 239 272 289 303 293 276 174 137 165 159 152 156 163 164 166 171 171 170 171 168 167 172 179 182 182 183 184 186 185 183 185 186 190 187 179 181 186 198 249 304 35 94
137 162 175 117 247 253 250 296 307 312 325 336 298 161 141 152 149 155 163 163 167 168 175 173 174 176 176 174 179 186 191 193 196 199 202 201 203 205 208 210 210 207 210 224 237 252 269 281 309
203 194 100 245 260 268 284 291 314 304 298 327 317 286 152 162 157 159 164 166 173 173 177 178 176 180 183 180 182 192 199 204 206 209 213 216 217 219 223 226 227 224 227 233 239 249 260 268 288
209 210 91 229 259 284 275 303 292 297 308 327 344 316 144 179 165 165 168 172 178 177 181 183 180 185 189 185 184 194 202 210 215 220 222 227 230 233 234 234 235 236 234 239 242 247 255 264 275
194 121 216 260 271 289 285 307 292 279 290 309 333 323 53 179 177 172 172 175 178 183 184 186 185 188 194 191 189 196 206 216 224 229 234 238 240 240 241 241 242 241 242 245 247 250 256 263 269
238 116 217 224 254 276 275 313 308 332 315 340 354 300 221 186 179 176 175 179 182 185 188 188 190 193 195 196 196 199 208 218 228 234 237 241 245 246 246 246 246 245 248 250 252 252 254 260 266
210 104 230 231 234 276 298 321 308 323 315 325 4 16 22 193 178 175 173 181 186 189 193 194 197 199 200 202 202 203 209 222 230 237 242 243 245 249 251 250 250 250 248 254 256 255 256 258 264
184 185 219 234 277 289 290 303 322 335 321 317 358 350 16 106 173 177 179 182 188 190 197 200 203 207 207 208 210 211 211 222 235 243 249 255 254 255 257 256 255 255 251 253 258 258 258 259 263
222 236 256 268 278 283 285 292 301 298 300 301 317 316 319 332 340 216 195 191 194 196 197 201 206 209 212 215 217 218 219 222 231 246 252 258 260 259 260 261 260 257 256 252 256 259 261 265 269
257 256 245 254 258 261 270 282 289 279 270 295 296 310 308 301 305 315 225 207 205 201 202 202 206 210 213 218 221 222 224 222 226 245 251 256 261 261 262 271 265 264 262 258 258 261 265 269 271
251 278 273 267 263 260 266 269 274 279 281 289 294 295 303 301 295 305 292 214 208 208 208 211 210 210 213 216 219 221 224 218 231 239 250 259 265 268 266 276 273 272 266 260 255 257 260 271 276
303 301 289 289 288 294 272 272 279 275 280 280 286 292 293 295 288 287 294 247 189 204 220 220 219 214 216 217 219 219 216 227 234 236 252 266 274 276 276 276 280 279 274 266 250 248 252 262 271
310 310 319 299 282 268 302 276 257 277 289 289 272 274 278 275 281 282 278 283 295 231 223 228 219 216 220 227 220 224 230 230 233 236 248 265 278 282 281 282 276 282 283 274 248 244 251 250 251
338 345 320 342 358 282 177 269 275 279 278 281 284 279 274 272 273 279 279 277 282 280 225 237 231 232 228 223 224 225 234 235 237 241 252 263 273 279 279 282 279 280 279 273 253 247 252 256 256
300 251 264 314 251 253 205 275 315 314 307 292 289 281 273 271 265 268 274 275 271 276 254 228 226 224 231 226 225 230 239 245 247 249 254 258 267 274 276 280 278 272 267 266 253 250 252 257 268
243 260 276 265 337 1 295 288 288 301 312 320 318 318 318 288 270 269 269 267 274 265 276 239 224 217 212 223 225 230 236 243 245 248 253 258 265 270 272 272 272 262 258 256 246 248 252 263 258
259 247 281 254 265 292 284 280 284 295 308 315 311 308 306 304 303 288 266 263 264 272 263 269 227 218 207 207 215 220 228 237 238 243 251 257 265 267 269 268 263 253 253 252 239 241 247 251 245
325 313 302 270 283 294 288 288 289 285 275 298 301 307 311 310 304 306 295 266 263 263 264 259 230 223 209 207 216 228 244 240 242 248 259 268 268 267 265 266 261 254 250 244 238 235 239 244 247
1 354 343 321 324 313 295 287 297 296 289 292 298 299 306 303 307 305 307 293 264 253 262 260 247 227 219 221 225 226 232 239 245 250 260 268 268 261 264 265 259 251 243 247 240 236 238 241 240
333 340 327 324 331 276 274 282 280 300 303 301 297 292 289 295 301 301 304 305 286 255 257 256 256 235 229 231 225 229 238 241 250 259 268 269 265 259 260 259 252 244 243 240 233 235 239 241 242
229 319 292 284 276 280 257 258 277 309 293 292 293 298 308 311 309 301 298 294 297 273 255 254 257 244 231 228 227 230 233 243 257 265 262 254 255 258 254 249 241 241 242 219 226 238 237 240 241
325 334 319 300 189 230 197 210 276 251 261 289 314 329 345 335 326 311 302 297 290 285 256 247 247 242 230 227 232 232 239 245 255 255 248 247 251 251 246 242 244 239 221 217 225 233 226 239 243
58 44 344 331 349 238 241 269 264 295 325 50 334 328 329 330 327 314 302 292 290 287 272 238 235 229 222 225 235 236 244 249 251 247 247 246 246 238 235 238 227 223 220 217 225 222 225 233 236
235 175 166 261 291 303 304 257 256 90 68 324 312 313 329 330 325 318 302 293 285 278 272 240 231 224 225 227 233 239 247 247 248 243 245 244 241 240 239 236 228 203 209 214 214 219 220 235 234
262 222 218 242 270 265 242 283 292 319 309 296 290 314 323 328 321 314 312 304 289 260 258 245 226 225 221 225 230 244 243 248 244 243 241 241 236 238 228 232 210 209 213 214 212 216 227 234 241
51 290 13 15 289 276 272 283 262 297 295 328 320 329 321 326 316 309 328 328 295 259 237 235 236 225 225 229 231 237 243 244 247 235 236 237 229 227 223 215 204 206 206 211 213 219 230 236 237
347 340 65 129 166 220 300 248 227 271 312 296 308 320 323 321 307 305 332 329 328 254 223 211 206 208 210 219 229 237 243 243 234 228 231 230 220 214 207 201 200 202 203 207 219 228 234 231 223
170 200 171 133 260 243 257 276 313 185 256 296 316 328 335 322 311 290 331 331 326 291 208 209 212 214 219 228 231 237 235 229 220 220 228 220 212 202 199 193 197 200 206 216 228 228 227 209 209